This is the latest recevied weather packets stored in our database for station/object K6MBY. If no packets are shown the sender has not sent any weather packets the latest 10 day(s).
| Time | Temp. | Humidity | Pressure | Rain* | Wind** | Luminosity | Snow |
|---|---|---|---|---|---|---|---|
| 1777921005 | 21.67° C | 52% | 1014.2 hPa | 0 mm | - | 799 W/m² | - |
| 1777920702 | 21.67° C | 55% | 1014.2 hPa | 0 mm | - | 777 W/m² | - |
| 1777920398 | 20.56° C | 54% | 1014 hPa | 0 mm | - | 770 W/m² | - |
| 1777920093 | 20.56° C | 54% | 1014.1 hPa | 0 mm | - | 725 W/m² | - |
| 1777919790 | 20.56° C | 57% | 1014.1 hPa | 0 mm | - | 788 W/m² | - |
| 1777919488 | 20.56° C | 57% | 1014.4 hPa | 0 mm | - | 755 W/m² | - |
| 1777919186 | 20° C | 56% | 1014.4 hPa | 0 mm | - | 779 W/m² | - |
| 1777918883 | 20° C | 55% | 1014.1 hPa | 0 mm | - | 779 W/m² | - |
| 1777918580 | 19.44° C | 56% | 1014.5 hPa | 0 mm | - | 777 W/m² | - |
| 1777918277 | 20° C | 55% | 1014.5 hPa | 0 mm | - | 738 W/m² | - |
| 1777917977 | 20° C | 55% | 1014.5 hPa | 0 mm | - | 729 W/m² | - |
| 1777917675 | 19.44° C | 56% | 1014.3 hPa | 0 mm | - | 712 W/m² | - |
| 1777917372 | 20° C | 55% | 1014.6 hPa | 0 mm | - | 734 W/m² | - |
| 1777917068 | 20° C | 56% | 1014.4 hPa | 0 mm | - | 732 W/m² | - |
| 1777916767 | 20° C | 57% | 1014.2 hPa | 0 mm | - | 713 W/m² | - |
| 1777916463 | 19.44° C | 56% | 1014.5 hPa | 0 mm | - | 683 W/m² | - |
| 1777916160 | 19.44° C | 57% | 1014.4 hPa | 0 mm | - | 660 W/m² | - |
| 1777915858 | 18.89° C | 58% | 1014.5 hPa | 0 mm | - | 638 W/m² | - |
| 1777915553 | 18.89° C | 57% | 1014.4 hPa | 0 mm | - | 619 W/m² | - |
| 1777915250 | 18.89° C | 57% | 1014.4 hPa | 0 mm | - | 623 W/m² | - |
| 1777914947 | 19.44° C | 57% | 1014.5 hPa | 0 mm | - | 623 W/m² | - |
| 1777914644 | 19.44° C | 57% | 1014.5 hPa | 0 mm | - | 626 W/m² | - |
| 1777914339 | 18.89° C | 56% | 1014.6 hPa | 0 mm | - | 622 W/m² | - |
| 1777914038 | 19.44° C | 57% | 1014.4 hPa | 0 mm | - | 580 W/m² | - |
| 1777913733 | 19.44° C | 57% | 1014.5 hPa | 0 mm | - | 558 W/m² | - |
* Rain latest hour (hover to see other rain measurements)
** Current wind speed in m/s (hover to see current wind gust speed)